Weather History for Stevensville, MD

Change the Weather History Date:

Friday, January 25, 2013

  Actual Average (KESN) Record (KESN)
Temperature  
Mean Temperature 24 °F -  
Max Temperature 26 °F 46 °F 74 °F (1950)
Min Temperature 21 °F 32 °F 8 °F (1963)
Degree Days  
Heating Degree Days 42    
Moisture  
Dew Point 10 °F    
Average Humidity 60    
Maximum Humidity 93    
Minimum Humidity 37    
Precipitation  
Precipitation 0.00 in - - ()
Sea Level Pressure  
Sea Level Pressure 30.32 in    
Wind  
Wind Speed 8 mph (WSW)    
Max Wind Speed 14 mph    
Max Gust Speed 21 mph    
Visibility 9 miles    
Events      
Averages and records for this station are not official NWS values.
T = Trace of Precipitation, MM = Missing Value Source: NWS Daily Summary

Daily Weather History Graph

Daily Weather History Graph

Search for Another Location

Airport:

Trip Planner

Search our weather history database for the weather conditions in past years. The results will help you decide how hot, cold, wet, or windy it might be!

Date:

Astronomy

Jan. 25, 2013 Rise Set
Actual Time 7:17 AM EST 5:18 PM EST
Civil Twilight 6:48 AM EST 5:47 PM EST
Nautical Twilight 6:16 AM EST 6:19 PM EST
Astronomical Twilight 5:44 AM EST 6:51 PM EST
Moon 4:13 PM EST (1/25) 5:55 AM EST (1/25)
Length of Visible Light 10h 58m
Length of Day
10h 01m
Waxing Gibbous, 98% of the Moon is Illuminated
Jan 25
Waxing Gibbous
Jan 26
Full
Feb 3
Last Quarter
Feb 10
New
Feb 17
First Quarter

Hourly Weather History & Observations

Time (EST) Temp. Windchill Dew Point Humidity Pressure Visibility Wind Dir Wind Speed Gust Speed Precip Events Conditions
12:14 AM 23.0 °F 11.7 °F 5.0 °F 46% 30.51 in 10.0 mi WNW 11.5 mph - N/A   Clear
12:35 AM 23.0 °F 11.1 °F 3.2 °F 43% 30.51 in 10.0 mi WNW 12.7 mph - N/A   Clear
12:57 AM 23.0 °F 10.6 °F 3.2 °F 43% 30.51 in 10.0 mi WNW 13.8 mph - N/A   Clear
1:18 AM 23.0 °F 12.4 °F 3.2 °F 43% 30.51 in 10.0 mi NW 10.4 mph - N/A   Clear
1:39 AM 23.0 °F 13.1 °F 5.0 °F 46% 30.50 in 10.0 mi NW 9.2 mph - N/A   Clear
2:00 AM 23.0 °F 11.7 °F 5.0 °F 46% 30.50 in 10.0 mi WNW 11.5 mph - N/A   Clear
2:22 AM 23.0 °F 13.1 °F 5.0 °F 46% 30.51 in 10.0 mi WNW 9.2 mph - N/A   Clear
2:43 AM 23.0 °F 13.1 °F 5.0 °F 46% 30.50 in 10.0 mi WNW 9.2 mph - N/A   Clear
3:04 AM 21.2 °F 10.9 °F 5.0 °F 50% 30.50 in 10.0 mi NW 9.2 mph - N/A   Clear
3:26 AM 21.2 °F 10.9 °F 5.0 °F 50% 30.49 in 10.0 mi NW 9.2 mph - N/A   Clear
3:47 AM 21.2 °F 10.9 °F 3.2 °F 46% 30.49 in 10.0 mi NNW 9.2 mph - N/A   Clear
4:08 AM 21.2 °F 10.9 °F 3.2 °F 46% 30.49 in 10.0 mi NNW 9.2 mph - N/A   Clear
4:30 AM 21.2 °F 11.7 °F 3.2 °F 46% 30.48 in 10.0 mi NNW 8.1 mph - N/A   Clear
4:51 AM 23.0 °F 13.9 °F 1.4 °F 39% 30.48 in 10.0 mi North 8.1 mph - N/A   Clear
5:12 AM 21.2 °F 11.7 °F 1.4 °F 42% 30.49 in 10.0 mi North 8.1 mph - N/A   Clear
5:55 AM 21.2 °F 13.6 °F 1.4 °F 42% 30.49 in 10.0 mi NW 5.8 mph - N/A   Clear
6:16 AM 21.2 °F 13.6 °F 1.4 °F 42% 30.49 in 10.0 mi NNW 5.8 mph - N/A   Clear
6:37 AM 21.2 °F 13.6 °F 3.2 °F 46% 30.48 in 10.0 mi NNW 5.8 mph - N/A   Clear
6:59 AM 21.2 °F 13.6 °F 5.0 °F 50% 30.47 in 10.0 mi WNW 5.8 mph - N/A   Clear
7:20 AM 21.2 °F 16.4 °F 6.8 °F 54% 30.47 in 10.0 mi NW 3.5 mph - N/A   Clear
7:41 AM 21.2 °F 16.4 °F 5.0 °F 50% 30.47 in 10.0 mi WNW 3.5 mph - N/A   Clear
8:02 AM 23.0 °F - 6.8 °F 50% 30.47 in 10.0 mi Calm Calm - N/A   Clear
8:24 AM 23.0 °F - 6.8 °F 50% 30.48 in 10.0 mi Calm Calm - N/A   Clear
9:06 AM 23.0 °F - 5.0 °F 46% 30.46 in 10.0 mi Calm Calm - N/A   Clear
9:49 AM 23.0 °F - 5.0 °F 46% 30.44 in 10.0 mi Calm Calm - N/A   Clear
10:10 AM 23.0 °F - 5.0 °F 46% 30.43 in 10.0 mi Calm Calm - N/A   Clear
10:31 AM 23.0 °F 17.0 °F 5.0 °F 46% 30.43 in 10.0 mi SSE 4.6 mph - N/A   Clear
10:52 AM 23.0 °F 17.0 °F 6.8 °F 50% 30.42 in 10.0 mi SSE 4.6 mph - N/A   Clear
11:13 AM 24.8 °F 19.1 °F 6.8 °F 46% 30.39 in 10.0 mi South 4.6 mph - N/A   Clear
11:35 AM 24.8 °F 16.9 °F 6.8 °F 46% 30.39 in 10.0 mi SSW 6.9 mph - N/A   Clear
11:56 AM 24.8 °F 19.1 °F 5.0 °F 43% 30.38 in 10.0 mi South 4.6 mph - N/A   Clear
12:17 PM 24.8 °F 17.9 °F 5.0 °F 43% 30.37 in 10.0 mi South 5.8 mph - N/A   Clear
12:38 PM 24.8 °F 19.1 °F 5.0 °F 43% 30.34 in 10.0 mi South 4.6 mph - N/A   Clear
1:00 PM 24.8 °F 19.1 °F 5.0 °F 43% 30.31 in 10.0 mi SSE 4.6 mph - N/A   Clear
1:21 PM 26.6 °F 20.0 °F 5.0 °F 40% 30.30 in 10.0 mi South 5.8 mph - N/A   Clear
1:42 PM 26.6 °F 18.2 °F 3.2 °F 37% 30.28 in 10.0 mi South 8.1 mph - N/A   Clear
2:03 PM 26.6 °F 20.0 °F 3.2 °F 37% 30.25 in 10.0 mi South 5.8 mph - N/A   Clear
2:25 PM 26.6 °F 20.0 °F 3.2 °F 37% 30.23 in 10.0 mi South 5.8 mph - N/A   Clear
2:46 PM 26.6 °F 15.7 °F 3.2 °F 37% 30.23 in 10.0 mi South 12.7 mph 16.1 mph N/A   Scattered Clouds
3:07 PM 26.6 °F 16.2 °F 5.0 °F 40% 30.21 in 10.0 mi South 11.5 mph 20.7 mph N/A   Mostly Cloudy
3:28 PM 24.8 °F 15.3 °F 12.2 °F 59% 30.22 in 2.5 mi South 9.2 mph - N/A   Overcast
3:50 PM 23.0 °F 18.4 °F 15.8 °F 74% 30.22 in 2.5 mi South 3.5 mph - N/A   Overcast
4:11 PM 23.0 °F 17.0 °F 15.8 °F 74% 30.20 in 3.0 mi South 4.6 mph - N/A   Overcast
4:32 PM 23.0 °F 15.8 °F 17.6 °F 80% 30.20 in 3.0 mi SSE 5.8 mph - N/A   Overcast
4:53 PM 23.0 °F 18.4 °F 19.4 °F 86% 30.19 in 5.0 mi West 3.5 mph - N/A   Overcast
5:14 PM 23.0 °F 17.0 °F 19.4 °F 86% 30.17 in 0.8 mi South 4.6 mph - N/A   Overcast
5:36 PM 23.0 °F 18.4 °F 21.2 °F 93% 30.17 in 1.2 mi SSW 3.5 mph - N/A   Overcast
5:57 PM 23.0 °F 17.0 °F 21.2 °F 93% 30.15 in 1.2 mi SW 4.6 mph - N/A   Overcast
6:18 PM 23.0 °F 17.0 °F 21.2 °F 93% 30.15 in 4.0 mi SSW 4.6 mph - N/A   Overcast
6:39 PM 23.0 °F - 21.2 °F 93% 30.15 in 7.0 mi Calm Calm - N/A   Mostly Cloudy
7:01 PM 23.0 °F - 21.2 °F 93% 30.14 in 10.0 mi Calm Calm - N/A   Overcast
7:22 PM 23.0 °F 17.0 °F 19.4 °F 86% 30.13 in 10.0 mi SSW 4.6 mph - N/A   Overcast
7:43 PM 24.8 °F 19.1 °F 19.4 °F 80% 30.13 in 10.0 mi SSW 4.6 mph - N/A   Mostly Cloudy
8:04 PM 24.8 °F 16.9 °F 19.4 °F 80% 30.12 in 10.0 mi SW 6.9 mph - N/A   Overcast
8:26 PM 24.8 °F 16.1 °F 17.6 °F 74% 30.12 in 10.0 mi SSW 8.1 mph - N/A   Overcast
8:47 PM 24.8 °F 15.3 °F 17.6 °F 74% 30.11 in 10.0 mi SW 9.2 mph - N/A   Overcast
9:08 PM 24.8 °F 17.9 °F 19.4 °F 80% 30.10 in 10.0 mi WSW 5.8 mph - N/A   Overcast
9:29 PM 23.0 °F 15.8 °F 19.4 °F 86% 30.10 in 10.0 mi WSW 5.8 mph - N/A   Overcast
9:51 PM 23.0 °F 15.8 °F 19.4 °F 86% 30.10 in 10.0 mi WSW 5.8 mph - N/A   Overcast
10:12 PM 23.0 °F 14.7 °F 19.4 °F 86% 30.09 in 10.0 mi WSW 6.9 mph - N/A   Overcast
10:33 PM 23.0 °F 14.7 °F 19.4 °F 86% 30.10 in 10.0 mi West 6.9 mph - N/A   Overcast
10:54 PM 23.0 °F 17.0 °F 19.4 °F 86% 30.10 in 10.0 mi West 4.6 mph - N/A   Overcast
11:16 PM 23.0 °F 15.8 °F 19.4 °F 86% 30.09 in 10.0 mi West 5.8 mph - N/A   Overcast
11:37 PM 23.0 °F 14.7 °F 19.4 °F 86% 30.10 in 10.0 mi West 6.9 mph - N/A   Overcast
11:58 PM 24.8 °F 16.9 °F 19.4 °F 80% 30.10 in 10.0 mi West 6.9 mph - N/A   Overcast